User: anonymous   Login
Location: Unspecified
(0.0000°N, 0.0000°E)
Time: 17:35:43
(UTC+00:00)
Language:

Cosmos 2327 - Orbit

View from above orbital plane
View from above orbital plane
View from above satellite
View from above satellite

Ground track
Ground track

The orbit data is extracted from the following two-line orbital elements,

1 23773U 96004A   18170.97452382 +.00000043 +00000-0 +29051-4 0  9996
2 23773 082.9839 113.3869 0049003 123.4554 305.7166 13.74489088124584
Epoch (UTC): 19 June 2018 23:23:18
Eccentricity: 0.0049003
inclination: 82.9839°
perigee height: 947 km
apogee height: 1019 km
right ascension of ascending node: 113.3869°
argument of perigee: 123.4554°
revolutions per day: 13.74489088
mean anomaly at epoch: 305.7166°
orbit number at epoch: 12458

The dashed part of the orbit path shows where the satellite is in the earth's shadow,  

DLR